This is the latest recevied weather packets stored in our database for station/object K7FRY. If no packets are shown the sender has not sent any weather packets the latest 10 day(s).
| Time | Temp. | Humidity | Pressure | Rain* | Wind** | Luminosity | Snow |
|---|---|---|---|---|---|---|---|
| 1777888026 | 18.33° C | 39% | 1013.4 hPa | 0 mm | - | 0 W/m² | - |
| 1777887723 | 18.33° C | 40% | 1013.1 hPa | 0 mm | - | 0 W/m² | - |
| 1777887420 | 18.89° C | 39% | 1013.3 hPa | 0 mm | - | 0 W/m² | - |
| 1777887115 | 18.89° C | 38% | 1013.2 hPa | 0 mm | - | 0 W/m² | - |
| 1777886812 | 18.89° C | 38% | 1013.2 hPa | 0 mm | - | 0 W/m² | - |
| 1777886508 | 18.33° C | 39% | 1013.1 hPa | 0 mm | - | 0 W/m² | - |
| 1777886206 | 17.78° C | 40% | 1012.9 hPa | 0 mm | - | 0 W/m² | - |
| 1777885903 | 18.33° C | 40% | 1013.3 hPa | 0 mm | - | 0 W/m² | - |
| 1777885602 | 18.33° C | 39% | 1012.9 hPa | 0 mm | - | 0 W/m² | - |
| 1777885300 | 18.33° C | 40% | 1013.4 hPa | 0 mm | - | 0 W/m² | - |
| 1777884998 | 18.89° C | 39% | 1013.2 hPa | 0 mm | - | 0 W/m² | - |
| 1777884693 | 18.89° C | 38% | 1013.7 hPa | 0 mm | - | 0 W/m² | - |
| 1777884390 | 19.44° C | 38% | 1013.7 hPa | 0 mm | - | 0 W/m² | - |
| 1777884086 | 18.33° C | 39% | 1013.6 hPa | 0 mm | - | 0 W/m² | - |
| 1777883784 | 19.44° C | 38% | 1013.7 hPa | 0 mm | - | 0 W/m² | - |
| 1777883481 | 20° C | 36% | 1013.6 hPa | 0 mm | - | 0 W/m² | - |
| 1777883177 | 19.44° C | 37% | 1013.4 hPa | 0 mm | - | 0 W/m² | - |
| 1777882873 | 19.44° C | 38% | 1013.6 hPa | 0 mm | - | 0 W/m² | - |
| 1777882570 | 19.44° C | 37% | 1013.8 hPa | 0 mm | - | 0 W/m² | - |
| 1777882266 | 21.67° C | 35% | 1013.6 hPa | 0 mm | - | 0 W/m² | - |
| 1777881963 | 22.22° C | 34% | 1013.7 hPa | 0 mm | - | 0 W/m² | - |
| 1777881659 | 21.11° C | 34% | 1013.7 hPa | 0 mm | - | 0 W/m² | - |
| 1777881356 | 20° C | 36% | 1014 hPa | 0 mm | - | 0 W/m² | - |
| 1777881053 | 20° C | 36% | 1013.8 hPa | 0 mm | - | 0 W/m² | - |
| 1777880751 | 21.67° C | 34% | 1013.9 hPa | 0 mm | - | 0 W/m² | - |
* Rain latest hour (hover to see other rain measurements)
** Current wind speed in m/s (hover to see current wind gust speed)